TimeAST,TemperatureF,Dew PointF,Humidity,Sea Level PressureIn,VisibilityMPH,Wind Direction,Wind SpeedMPH,Gust SpeedMPH,PrecipitationIn,Events,Conditions,WindDirDegrees,DateUTC
12:00 AM,82.4,75.2,79,29.89,-9999.0,East,10.4,-,N/A,,Unknown,90,2012-09-13 04:00:00
1:00 AM,82.4,75.2,79,29.89,-9999.0,East,9.2,-,N/A,,Unknown,80,2012-09-13 05:00:00
2:00 AM,82.4,75.2,79,29.86,-9999.0,East,8.1,-,N/A,,Unknown,80,2012-09-13 06:00:00
3:00 AM,82.4,75.2,79,29.83,-9999.0,East,10.4,-,N/A,,Unknown,80,2012-09-13 07:00:00
4:00 AM,75.2,73.4,94,29.86,-9999.0,East,24.2,42.6,N/A,Rain,Heavy Rain,80,2012-09-13 08:00:00
8:00 AM,80,79,94,,6,ENE,11.5,,,,Clear,70,2012-09-13 12:00:00
8:00 AM,78.8,78.8,100,29.89,6.2,ENE,11.5,-,N/A,,Scattered Clouds,70,2012-09-13 12:00:00
9:00 AM,82.4,78.8,89,29.92,6.2,ESE,11.5,-,N/A,,Scattered Clouds,110,2012-09-13 13:00:00
10:00 AM,84.2,78.8,84,29.92,-9999.0,ESE,13.8,-,N/A,,Unknown,120,2012-09-13 14:00:00
11:00 AM,87,79,70,29.93,19,SE,17.3,,,,Partly Cloudy,130,2012-09-13 15:00:00
12:00 PM,86.0,78.8,79,29.92,6.2,ESE,16.1,-,N/A,,Scattered Clouds,110,2012-09-13 16:00:00
1:00 PM,87.8,78.8,75,29.86,-9999.0,ESE,17.3,-,N/A,,Unknown,110,2012-09-13 17:00:00
2:00 PM,87,78,67,29.86,19,East,18.4,,,,Partly Cloudy,100,2012-09-13 18:00:00
2:00 PM,87.8,77.0,70,29.83,6.2,East,18.4,-,N/A,,Scattered Clouds,100,2012-09-13 18:00:00
3:00 PM,87.8,77.0,70,29.83,6.2,ESE,16.1,-,N/A,,Scattered Clouds,110,2012-09-13 19:00:00
4:00 PM,87.8,78.8,75,29.80,6.2,East,15.0,-,N/A,,Partly Cloudy,100,2012-09-13 20:00:00
5:00 PM,87,79,71,29.82,19,ESE,15.0,,,,Partly Cloudy,110,2012-09-13 21:00:00
5:00 PM,87.8,78.8,75,29.80,6.2,East,15.0,-,N/A,,Scattered Clouds,100,2012-09-13 21:00:00
6:00 PM,86.0,78.8,79,29.80,6.2,East,15.0,-,N/A,,Scattered Clouds,100,2012-09-13 22:00:00
7:00 PM,84.2,77.0,79,29.83,6.2,East,16.1,-,N/A,,Scattered Clouds,90,2012-09-13 23:00:00
8:00 PM,84.2,78.8,84,29.86,6.2,East,12.7,-,N/A,,Scattered Clouds,80,2012-09-14 00:00:00
9:00 PM,82.4,78.8,89,29.89,6.2,East,13.8,-,N/A,,Scattered Clouds,100,2012-09-14 01:00:00
10:00 PM,82.4,78.8,89,29.92,6.2,East,12.7,-,N/A,,Scattered Clouds,90,2012-09-14 02:00:00
11:00 PM,82,78,85,,6,East,12.7,,,,Clear,90,2012-09-14 03:00:00
11:00 PM,82.4,78.8,89,29.92,-9999.0,East,12.7,-,N/A,,Unknown,90,2012-09-14 03:00:00